+ View the NASA Portal
+ Center for Near-Earth Object Studies
IMPORTANT:
The SSD Announcement email list is now available. Major changes are coming in the near future, including possible hostname and/or URL changes. To be notified of such changes, subscribe to this email list.
Please visit
this page
for more details.
Don't show this message again
JPL Small-Body Database Browser
Search:
[
help
]
344361 (2001 XC36)
Classification:
Main-belt Asteroid
SPK-ID:
2344361
[
Ephemeris
|
Orbit Diagram
|
Orbital Elements
|
Mission Design
|
Physical Parameters
|
Discovery Circumstances
|
Close-Approach Data
]
[ show orbit diagram ]
Orbital Elements at Epoch 2458600.5 (2019-Apr-27.0) TDB
Reference:
JPL 9
(heliocentric ecliptic J2000)
Element
Value
Uncertainty (1-sigma)
Units
e
.252204076009341
9.5011e-08
a
3.105968373668411
4.1897e-08
au
q
2.322630489873134
3.0581e-07
au
i
14.62572816402107
8.9822e-06
deg
node
278.91823120226
3.7324e-05
deg
peri
91.93390494006505
4.3303e-05
deg
M
96.07310280773342
1.8222e-05
deg
t
p
2458066.927685777902
(2017-Nov-09.42768578)
9.767e-05
TDB
period
1999.373680106574
5.47
4.0454e-05
1.108e-07
d
yr
n
.1800563864483855
3.6432e-09
deg/d
Q
3.889306257463688
5.2463e-08
au
Orbit Determination Parameters
# obs. used (total)
188
data-arc span
6316 days (17.29 yr)
first obs. used
2001-10-25
last obs. used
2019-02-09
planetary ephem.
DE431
SB-pert. ephem.
SB431-N16
condition code
0
norm. resid. RMS
.62752
source
ORB
producer
Otto Matic
solution date
2019-Jul-13 15:53:16
Additional Information
Earth MOID
= 1.37758 au
Jupiter MOID
= 2.00398 au
T_jup
= 3.122
[ show covariance matrix ]
[
Ephemeris
|
Orbit Diagram
|
Orbital Elements
|
Mission Design
|
Physical Parameters
|
Discovery Circumstances
|
Close-Approach Data
]
Physical Parameter Table
Parameter
Symbol
Value
Units
Sigma
Reference
Notes
absolute magnitude
H
15.5
n/a
MPO353090
344361 (2001 XC36)
Discovered 2001-Dec-09 by LINEAR at Socorro
Reference:
20121128/Numbers.arc
Last Updated:
2012-12-03
[ show close-approach data ]
Alternate Designations
2001 XC36
= 2006 QK134
[
Ephemeris
|
Orbit Diagram
|
Orbital Elements
|
Mission Design
|
Physical Parameters
|
Discovery Circumstances
|
Close-Approach Data
]
2019-Dec-06 01:01 UT
(server date/time)
Site Manager:
Ryan S. Park
Webmaster
:
Alan B. Chamberlin